Location: Kitchener-Waterloo
(43.4500°N, 80.5000°W)
Time: 15:31:29
(UTC-04:00)

Amateur Radio Satellites - All Passes

Search period start: 21 September 2017 15:01
Search period end: 22 September 2017 15:01
Location: Kitchener-Waterloo, 43.4500°N, 80.5000°W

Satellite Date Start Highest point End Downlink Frequencies (MHz)
Time Altitude Azimuth
SPROUT 21 Sep 15:02:57 15:06:02 20° 295° (WNW) 15:09:06 437.525
Oscar 19 21 Sep 15:03:41 15:07:59 26° 266° (W) 15:12:19 437.125/150
SO-50 21 Sep 15:19:02 15:23:26 56° 120° (ESE) 15:27:50 436.795
NO-84 21 Sep 15:24:26 15:28:05 53° 324° (NW) 15:31:27 435.350 FM
PCSat 21 Sep 15:25:40 15:30:33 36° 111° (ESE) 15:35:30 145.827
50 SAT 21 Sep 15:50:42 15:52:33 14° 294° (WNW) 15:54:23 437.505
BEESAT 21 Sep 15:51:19 15:55:07 23° 94° (E) 15:58:54 436.000
UKube-1 21 Sep 15:58:38 16:02:36 37° 291° (WNW) 16:06:34 .
DX 1 21 Sep 16:00:38 16:04:09 25° 294° (WNW) 16:07:39 434.975-435.025
ITAMSAT 1 21 Sep 16:01:45 16:06:55 82° 74° (ENE) 16:12:08 435.822/435.867
MOZHAYETS 4 21 Sep 16:44:14 16:48:55 79° 102° (ESE) 16:53:32
ITUPSAT 1 21 Sep 16:49:51 16:54:42 84° 102° (ESE) 16:59:32 437.325
AO-7 21 Sep 16:50:36 16:58:25 43° 260° (W) 17:06:16 .
RS-15 21 Sep 16:57:49 17:08:35 43° 252° (WSW) 17:18:50 29.354- 29.394
SO-50 21 Sep 17:00:41 17:04:12 22° 319° (NW) 17:07:45 436.795
NO-84 21 Sep 17:03:58 17:06:03 15° 343° (NNW) 17:08:02 435.350 FM
CUBESAT XI-V 21 Sep 17:04:21 17:08:20 28° 95° (E) 17:12:15 437.345
PCSat 21 Sep 17:08:56 17:13:56 36° 310° (NW) 17:18:58 145.827
DOVE 4 21 Sep 17:14:17 17:18:22 36° 71° (ENE) 17:22:18 437.250
XW-2B 21 Sep 17:19:32 17:20:10 10° 62° (ENE) 17:20:47 145.730 - 145.750
XW-2F 21 Sep 17:21:32 17:22:10 10° 62° (ENE) 17:22:48 145.980 - 146.000
KKS-1 21 Sep 17:23:35 17:26:07 15° 91° (E) 17:28:38 437.445
BEESAT 21 Sep 17:28:32 17:33:01 41° 291° (WNW) 17:37:29 436.000
CUTE-I 21 Sep 17:33:50 17:37:40 21° 61° (ENE) 17:41:31 437.470
XW-2C 21 Sep 17:38:35 17:41:09 17° 66° (ENE) 17:43:45 145.795 - 145.815
ITAMSAT 1 21 Sep 17:44:53 17:47:01 12° 271° (W) 17:49:09 435.822/435.867
LilacSat-2 21 Sep 17:47:20 17:50:24 23° 68° (ENE) 17:53:31 437.200
NUDT-PHONESAT 21 Sep 17:50:59 17:53:27 17° 66° (ENE) 17:55:55 437.300
STARS 21 Sep 17:55:16 17:57:18 13° 90° (E) 17:59:21 437.465
KAITUO 1B 21 Sep 18:14:29 18:17:52 32° 71° (ENE) 18:21:17 145.475/437.950
MOZHAYETS 4 21 Sep 18:23:23 18:25:24 13° 300° (WNW) 18:27:26
ITUPSAT 1 21 Sep 18:29:43 18:31:50 13° 302° (WNW) 18:33:58 437.325
SEEDS 21 Sep 18:33:46 18:34:09 10° 60° (ENE) 18:34:32 437.485
XW-2D 21 Sep 18:37:39 18:41:29 87° 77° (ENE) 18:45:21 145.860 - 145.880
CUBESAT XI-V 21 Sep 18:41:35 18:45:41 31° 292° (WNW) 18:49:44 437.345
NO-84 21 Sep 18:43:33 18:44:34 11° 5° (N) 18:45:32 435.350 FM
HO-68 21 Sep 18:45:24 18:51:58 41° 63° (ENE) 18:58:33 435.675
XW-2B 21 Sep 18:49:57 18:53:46 69° 258° (WSW) 18:57:38 145.730 - 145.750
XW-2F 21 Sep 18:51:54 18:55:43 69° 259° (W) 18:59:33 145.980 - 146.000
DOVE 4 21 Sep 18:52:47 18:56:10 21° 266° (W) 18:59:27 437.250
CUTE 1.7 + AOD 2 21 Sep 18:53:33 18:57:06 26° 68° (ENE) 19:00:40 437.475
KKS-1 21 Sep 18:58:38 19:03:00 55° 287° (WNW) 19:07:19 437.445
CUBEBUG 2 21 Sep 18:59:02 19:01:48 17° 63° (ENE) 19:04:38 437.445
XW-2C 21 Sep 19:11:29 19:15:03 37° 262° (W) 19:18:40 145.795 - 145.815
UWE-3 21 Sep 19:11:32 19:13:48 14° 61° (ENE) 19:16:06 435.000/436.395/437.385
CUTE-I 21 Sep 19:12:03 19:17:16 58° 259° (W) 19:22:32 437.470
LilacSat-2 21 Sep 19:21:14 19:24:34 27° 265° (W) 19:27:55 437.200
NUDT-PHONESAT 21 Sep 19:23:33 19:27:02 36° 262° (W) 19:30:33 437.300
STARS 21 Sep 19:29:41 19:34:03 62° 287° (WNW) 19:38:23 437.465
KAITUO 1B 21 Sep 19:49:13 19:51:56 18° 267° (W) 19:54:39 145.475/437.950
AO-73 21 Sep 20:01:44 20:05:08 23° 66° (ENE) 20:08:36 145.935
ZACube-1 21 Sep 20:02:54 20:06:29 26° 67° (ENE) 20:10:10 437.345
Oscar 11 21 Sep 20:04:09 20:07:05 18° 64° (ENE) 20:10:01 .
SEEDS 21 Sep 20:04:53 20:09:08 86° 257° (WSW) 20:13:25 437.485
BEESAT 3 21 Sep 20:08:21 20:11:10 19° 112° (ESE) 20:14:00 437.485
XW-2A 21 Sep 20:14:03 20:17:27 89° 261° (W) 20:20:54 145.665 - 145.685
NO-84 21 Sep 20:20:16 20:22:51 24° 27° (NNE) 20:25:20 435.350 FM
CUTE 1.7 + AOD 2 21 Sep 20:29:04 20:32:50 29° 265° (W) 20:36:36 437.475
HO-68 21 Sep 20:32:59 20:39:39 42° 262° (W) 20:46:23 435.675
CUBEBUG 2 21 Sep 20:33:58 20:38:01 47° 261° (W) 20:42:14 437.445
AAUSAT CUBESAT 2 21 Sep 20:34:41 20:38:52 89° 274° (W) 20:43:03 437.432
Tancredo 1 21 Sep 20:43:53 20:46:20 32° 140° (SE) 20:48:48 437.200
UWE-3 21 Sep 20:45:29 20:49:42 62° 259° (W) 20:54:04 435.000/436.395/437.385
AO-85 21 Sep 20:47:08 20:49:26 15° 111° (ESE) 20:51:45 145.980
STRAND 1 21 Sep 20:51:51 20:57:00 72° 103° (ESE) 21:02:08 437.568
DELFI C3 21 Sep 20:52:13 20:53:47 12° 63° (ENE) 20:55:21 145.870
FO-29 21 Sep 21:22:23 21:26:06 18° 92° (E) 21:30:01 435.910
AO-73 21 Sep 21:37:11 21:41:08 35° 263° (W) 21:45:13 145.935
Oscar 11 21 Sep 21:38:39 21:42:51 47° 261° (W) 21:47:05 .
ZACube-1 21 Sep 21:38:50 21:42:39 30° 265° (W) 21:46:34 437.345
BEESAT 3 21 Sep 21:44:33 21:48:24 44° 309° (NW) 21:52:18 437.485
ISS 21 Sep 21:46:01 21:48:44 24° 136° (SE) 21:51:27 437.550
BEESAT 2 21 Sep 21:46:20 21:50:17 63° 121° (ESE) 21:54:19 435.950
EO-88 21 Sep 21:54:02 21:57:18 30° 70° (ENE) 22:00:34 145.990 - 145.960
NO-84 21 Sep 21:57:33 22:00:15 34° 227° (SW) 22:02:52 435.350 FM
SO-50 21 Sep 22:09:55 22:12:15 14° 33° (NNE) 22:14:35 436.795
Tancredo 1 21 Sep 22:18:27 22:20:53 29° 338° (NNW) 22:23:20 437.200
Max Valier Satellite 21 Sep 22:21:24 22:25:06 88° 262° (W) 22:28:51 145.860
DELFI C3 21 Sep 22:24:07 22:28:02 61° 259° (W) 22:31:58 145.870
AO-85 21 Sep 22:25:38 22:29:24 48° 309° (NW) 22:33:15 145.980
nSIGHT-1 21 Sep 22:29:07 22:32:20 68° 143° (SE) 22:35:33 .
STRAND 1 21 Sep 22:32:28 22:35:35 16° 300° (WNW) 22:38:43 437.568
UNISAT 6 21 Sep 22:52:10 22:56:35 41° 98° (E) 23:01:02 437.425
PRISM 21 Sep 22:55:25 22:58:32 21° 94° (E) 23:01:38 437.425
LO-87 21 Sep 22:57:59 23:00:48 23° 69° (ENE) 23:03:38 145.935 - 145.965
FO-29 21 Sep 23:06:14 23:11:33 63° 287° (WNW) 23:17:25 435.910
YUBILEINY 21 Sep 23:08:09 23:15:33 30° 66° (ENE) 23:22:55 435.215
TIGRISAT 21 Sep 23:16:21 23:21:00 68° 101° (E) 23:25:41 435.000
ISS 21 Sep 23:21:51 23:25:03 48° 334° (NNW) 23:28:16 437.550
BEESAT 2 21 Sep 23:25:40 23:28:25 17° 320° (NW) 23:31:12 435.950
ESTCUBE 1 21 Sep 23:26:25 23:30:39 39° 70° (ENE) 23:34:52 437.505/2401.250
EO-88 21 Sep 23:28:26 23:31:00 18° 267° (W) 23:33:35 145.990 - 145.960
SO-50 21 Sep 23:48:58 23:53:32 69° 53° (NE) 23:58:10 436.795
Tancredo 1 21 Sep 23:54:23 23:56:02 15° 357° (N) 23:57:42 437.200
VELOX 1 22 Sep 00:05:53 00:09:07 20° 65° (ENE) 00:12:22 145.980
nSIGHT-1 22 Sep 00:06:04 00:08:53 26° 343° (NNW) 00:11:43 .
POLYITAN 1 22 Sep 00:08:39 00:10:28 12° 90° (E) 00:12:19 437.675
PCSat 22 Sep 00:11:55 00:17:01 39° 51° (NE) 00:22:05 145.827
EO-79 22 Sep 00:13:11 00:15:27 14° 91° (E) 00:17:43 145.935-145.965
SPROUT 22 Sep 00:20:33 00:24:24 35° 70° (ENE) 00:28:17 437.525
AIST 2D 22 Sep 00:21:20 00:24:43 42° 98° (E) 00:28:04 435.315
QB50P2 22 Sep 00:25:12 00:28:28 21° 94° (E) 00:31:43 145.880/145.840
UNISAT 6 22 Sep 00:29:25 00:33:02 23° 295° (WNW) 00:36:40 437.425
PRISM 22 Sep 00:30:14 00:33:52 32° 291° (WNW) 00:37:29 437.425
LO-87 22 Sep 00:31:20 00:34:08 22° 265° (W) 00:36:58 145.935 - 145.965
50 SAT 22 Sep 00:49:10 00:51:01 14° 66° (ENE) 00:52:52 437.505
TIGRISAT 22 Sep 00:54:33 00:57:09 15° 298° (WNW) 00:59:45 435.000
ISS 22 Sep 00:59:32 01:02:04 20° 353° (N) 01:04:38 437.550
NANOSAT C BR1 22 Sep 01:02:15 01:06:19 42° 99° (E) 01:10:22 145.865
ESTCUBE 1 22 Sep 01:04:05 01:07:33 22° 267° (W) 01:11:04 437.505/2401.250
YUBILEINY 22 Sep 01:04:24 01:12:59 65° 268° (W) 01:21:35 435.215
UKube-1 22 Sep 01:18:48 01:22:02 21° 65° (ENE) 01:25:17 .
DX 1 22 Sep 01:20:38 01:24:30 33° 69° (ENE) 01:28:24 434.975-435.025
Tancredo 1 22 Sep 01:29:05 01:31:17 21° 17° (NNE) 01:33:28 437.200
SO-50 22 Sep 01:30:54 01:33:28 15° 250° (WSW) 01:36:03 436.795
DUCHIFAT 1 22 Sep 01:31:46 01:36:02 80° 101° (E) 01:40:18 145.980
Oscar 19 22 Sep 01:35:55 01:38:06 13° 88° (E) 01:40:17 437.125/150
VELOX 1 22 Sep 01:41:08 01:45:18 41° 261° (W) 01:49:29 145.980
POLYITAN 1 22 Sep 01:42:24 01:46:39 62° 287° (WNW) 01:50:53 437.675
nSIGHT-1 22 Sep 01:43:32 01:45:58 19° 3° (N) 01:48:24 .
EO-79 22 Sep 01:47:21 01:51:32 54° 288° (WNW) 01:55:42 145.935-145.965
PCSat 22 Sep 01:55:31 02:00:19 33° 250° (WSW) 02:05:06 145.827
AIST 2D 22 Sep 01:55:52 01:57:31 13° 295° (WNW) 01:59:11 435.315
SPROUT 22 Sep 01:57:10 02:00:23 21° 266° (W) 02:03:37 437.525
QB50P2 22 Sep 02:00:25 02:04:21 36° 290° (WNW) 02:08:15 145.880/145.840
MOZHAYETS 4 22 Sep 02:14:09 02:15:01 10° 58° (ENE) 02:15:52
BUGSAT 1 22 Sep 02:15:14 02:19:25 64° 102° (ESE) 02:23:37 437.445
50 SAT 22 Sep 02:20:14 02:23:15 32° 262° (W) 02:26:16 437.505
M-CUBED/EXP-1 PRIME 22 Sep 02:20:23 02:23:45 85° 103° (ESE) 02:27:00 437.505
ITUPSAT 1 22 Sep 02:22:31 02:25:02 14° 60° (ENE) 02:27:34 437.325
ISS 22 Sep 02:36:36 02:39:21 24° 14° (NNE) 02:42:05 437.550
NANOSAT C BR1 22 Sep 02:38:43 02:41:43 19° 295° (WNW) 02:44:43 145.865
Gurwin Techsat 1B 22 Sep 02:41:59 02:46:53 36° 97° (E) 02:51:45 435.225
UKube-1 22 Sep 02:53:49 02:57:49 38° 262° (W) 03:01:51 .
DX 1 22 Sep 02:57:14 03:00:44 24° 265° (W) 03:04:15 434.975-435.025
BEESAT 22 Sep 02:58:35 03:02:44 31° 67° (ENE) 03:06:55 436.000
AO-7 22 Sep 03:02:33 03:03:52 10° 84° (E) 03:05:10 .
Tancredo 1 22 Sep 03:03:20 03:06:02 66° 215° (SW) 03:08:43 437.200
YUBILEINY 22 Sep 03:05:12 03:07:56 12° 288° (WNW) 03:10:40 435.215
DUCHIFAT 1 22 Sep 03:09:54 03:11:04 11° 300° (WNW) 03:12:13 145.980
Oscar 19 22 Sep 03:12:51 03:18:03 81° 287° (WNW) 03:23:11 437.125/150
nSIGHT-1 22 Sep 03:19:52 03:22:56 37° 23° (NNE) 03:26:00 .
O/OREOS (USA 219) 22 Sep 03:41:13 03:45:43 89° 128° (SE) 03:50:17 437.305
MOZHAYETS 4 22 Sep 03:46:46 03:51:23 85° 76° (ENE) 03:56:03
BUGSAT 1 22 Sep 03:52:18 03:54:15 13° 298° (WNW) 03:56:14 437.445
ITUPSAT 1 22 Sep 03:57:29 04:02:14 74° 257° (WSW) 04:07:04 437.325
CUBESAT XI-V 22 Sep 04:08:26 04:12:36 32° 68° (ENE) 04:16:45 437.345
ISS 22 Sep 04:12:52 04:16:10 85° 30° (NNE) 04:19:28 437.550
ITAMSAT 1 22 Sep 04:13:53 04:18:13 26° 95° (E) 04:22:32 435.822/435.867
Gurwin Techsat 1B 22 Sep 04:22:06 04:26:43 31° 294° (WNW) 04:31:20 435.225
KKS-1 22 Sep 04:22:47 04:25:38 17° 63° (ENE) 04:28:28 437.445
BEESAT 3 22 Sep 04:23:10 04:26:06 19° 42° (NE) 04:29:00 437.485
BEESAT 22 Sep 04:36:16 04:40:27 30° 264° (W) 04:44:40 436.000
AO-7 22 Sep 04:50:03 04:58:17 62° 104° (ESE) 05:06:26 .
STARS 22 Sep 04:53:04 04:55:26 15° 62° (ENE) 04:57:49 437.465
Oscar 19 22 Sep 04:54:39 04:56:31 12° 304° (WNW) 04:58:24 437.125/150
nSIGHT-1 22 Sep 04:56:15 04:59:15 34° 221° (SW) 05:02:15 .
RS-15 22 Sep 05:09:51 05:20:13 34° 104° (ESE) 05:30:36 29.354- 29.394
AO-85 22 Sep 05:14:50 05:18:30 25° 45° (NE) 05:22:22 145.980
O/OREOS (USA 219) 22 Sep 05:23:54 05:25:50 12° 312° (NW) 05:27:47 437.305
MOZHAYETS 4 22 Sep 05:29:00 05:29:08 10° 273° (W) 05:29:17
CUBESAT XI-V 22 Sep 05:45:52 05:49:56 28° 265° (W) 05:54:01 437.345
ISS 22 Sep 05:50:39 05:52:13 13° 229° (SW) 05:53:47 437.550
ITAMSAT 1 22 Sep 05:52:56 05:57:48 41° 292° (WNW) 06:02:40 435.822/435.867
KKS-1 22 Sep 05:57:28 06:01:47 52° 260° (W) 06:06:07 437.445
BEESAT 3 22 Sep 06:00:04 06:03:58 51° 240° (WSW) 06:07:45 437.485
BEESAT 2 22 Sep 06:02:49 06:06:49 53° 52° (NE) 06:10:45 435.950
XW-2B 22 Sep 06:23:21 06:24:35 11° 90° (E) 06:25:46 145.730 - 145.750
XW-2F 22 Sep 06:24:56 06:26:04 11° 90° (E) 06:27:11 145.980 - 146.000
STARS 22 Sep 06:27:00 06:31:18 61° 259° (W) 06:35:37 437.465
STRAND 1 22 Sep 06:32:20 06:35:21 16° 60° (ENE) 06:38:23 437.568
XW-2C 22 Sep 06:43:10 06:46:03 20° 93° (E) 06:48:53 145.795 - 145.815
AO-7 22 Sep 06:43:26 06:50:35 34° 304° (WNW) 06:57:45 .
DOVE 4 22 Sep 06:48:24 06:52:37 88° 107° (ESE) 06:57:00 437.250
LilacSat-2 22 Sep 06:52:54 06:56:15 27° 96° (E) 06:59:33 437.200
NUDT-PHONESAT 22 Sep 06:53:00 06:55:40 18° 93° (E) 06:58:17 437.300
AO-85 22 Sep 06:54:47 06:59:03 45° 242° (WSW) 07:03:38 145.980
KAITUO 1B 22 Sep 07:17:55 07:21:26 37° 97° (E) 07:24:55 145.475/437.950
RS-15 22 Sep 07:19:21 07:31:40 77° 307° (NW) 07:44:03 29.354- 29.394
CUTE-I 22 Sep 07:27:43 07:32:55 51° 100° (E) 07:38:06 437.470
BEESAT 2 22 Sep 07:41:45 07:44:07 15° 250° (WSW) 07:46:28 435.950
XW-2D 22 Sep 07:42:58 07:46:47 73° 285° (WNW) 07:50:34 145.860 - 145.880
SEEDS 22 Sep 07:48:51 07:51:10 14° 90° (E) 07:53:29 437.485
XW-2B 22 Sep 07:55:20 07:59:05 53° 286° (WNW) 08:02:46 145.730 - 145.750
XW-2F 22 Sep 07:56:47 08:00:30 54° 286° (WNW) 08:04:11 145.980 - 146.000
HO-68 22 Sep 07:58:52 08:05:28 38° 97° (E) 08:12:03 435.675
STRAND 1 22 Sep 08:08:51 08:13:55 73° 257° (WSW) 08:19:03 437.568
CUTE 1.7 + AOD 2 22 Sep 08:12:07 08:16:09 42° 98° (E) 08:20:09 437.475
XW-2C 22 Sep 08:16:54 08:20:15 29° 290° (WNW) 08:23:34 145.795 - 145.815
AAUSAT CUBESAT 2 22 Sep 08:17:13 08:19:07 13° 90° (E) 08:21:02 437.432
CUBEBUG 2 22 Sep 08:23:03 08:27:20 34° 96° (E) 08:31:37 437.445
NUDT-PHONESAT 22 Sep 08:26:15 08:29:35 31° 290° (WNW) 08:32:53 437.300
LilacSat-2 22 Sep 08:27:22 08:30:22 22° 292° (WNW) 08:33:22 437.200
UWE-3 22 Sep 08:33:54 08:37:49 26° 94° (E) 08:41:43 435.000/436.395/437.385
KAITUO 1B 22 Sep 08:52:45 08:55:08 16° 294° (WNW) 08:57:29 145.475/437.950
XW-2A 22 Sep 09:07:01 09:10:29 82° 102° (ESE) 09:13:53 145.665 - 145.685
CUTE-I 22 Sep 09:08:30 09:12:37 23° 297° (WNW) 09:16:43 437.470
FO-29 22 Sep 09:19:47 09:25:26 61° 73° (ENE) 09:30:39 435.910
SEEDS 22 Sep 09:23:05 09:27:09 50° 287° (WNW) 09:31:10 437.485
AO-73 22 Sep 09:23:21 09:27:41 40° 97° (E) 09:31:59 145.935
Oscar 11 22 Sep 09:24:47 09:28:33 28° 95° (E) 09:32:17 .
ZACube-1 22 Sep 09:25:04 09:29:32 47° 99° (E) 09:33:56 437.345
RS-15 22 Sep 09:35:45 09:46:34 33° 335° (NNW) 09:57:15 29.354- 29.394
PRISM 22 Sep 09:45:58 09:48:50 19° 65° (ENE) 09:51:42 437.425
HO-68 22 Sep 09:46:31 09:53:16 45° 295° (WNW) 09:59:59 435.675
CUTE 1.7 + AOD 2 22 Sep 09:48:43 09:51:40 19° 295° (WNW) 09:54:36 437.475
AAUSAT CUBESAT 2 22 Sep 09:50:53 09:54:55 54° 286° (WNW) 09:58:54 437.432
UNISAT 6 22 Sep 09:52:02 09:56:04 39° 70° (ENE) 10:00:12 437.425
CUBEBUG 2 22 Sep 09:59:50 10:03:48 28° 292° (WNW) 10:07:47 437.445
DELFI C3 22 Sep 10:00:56 10:03:11 15° 91° (E) 10:05:26 145.870
UWE-3 22 Sep 10:10:04 10:14:17 35° 291° (WNW) 10:18:30 435.000/436.395/437.385
TIGRISAT 22 Sep 10:15:55 10:20:11 64° 74° (ENE) 10:24:35 435.000
EO-88 22 Sep 10:54:42 10:58:03 33° 97° (E) 11:01:23 145.990 - 145.960
AIST 2D 22 Sep 10:57:04 10:59:38 19° 68° (ENE) 11:02:14 435.315
AO-73 22 Sep 11:00:07 11:03:39 22° 294° (WNW) 11:07:10 145.935
Oscar 11 22 Sep 11:00:55 11:04:37 27° 292° (WNW) 11:08:16 .
ZACube-1 22 Sep 11:02:10 11:05:26 20° 296° (WNW) 11:08:43 437.345
POLYITAN 1 22 Sep 11:03:02 11:04:31 12° 61° (ENE) 11:06:01 437.675
FO-29 22 Sep 11:07:10 11:10:55 18° 268° (W) 11:14:29 435.910
EO-79 22 Sep 11:07:19 11:09:14 13° 61° (ENE) 11:11:10 145.935-145.965
QB50P2 22 Sep 11:19:09 11:22:06 19° 65° (ENE) 11:25:04 145.880/145.840
PRISM 22 Sep 11:19:58 11:23:49 39° 261° (W) 11:27:41 437.425
Max Valier Satellite 22 Sep 11:23:44 11:27:28 74° 285° (WNW) 11:31:12 145.860
UNISAT 6 22 Sep 11:29:44 11:32:56 20° 268° (W) 11:36:12 437.425
M-CUBED/EXP-1 PRIME 22 Sep 11:34:16 11:36:28 14° 59° (ENE) 11:38:36 437.505
DELFI C3 22 Sep 11:34:27 11:38:10 42° 288° (WNW) 11:41:51 145.870
RS-15 22 Sep 11:54:05 12:04:06 28° 10° (N) 12:13:47 29.354- 29.394
NANOSAT C BR1 22 Sep 11:55:11 11:59:00 35° 70° (ENE) 12:02:51 145.865
TIGRISAT 22 Sep 11:55:36 11:57:20 12° 271° (W) 11:59:06 435.000
LO-87 22 Sep 11:56:23 11:59:22 24° 95° (E) 12:02:20 145.935 - 145.965
O/OREOS (USA 219) 22 Sep 12:11:19 12:15:05 24° 56° (NE) 12:18:51 437.305
YUBILEINY 22 Sep 12:11:19 12:18:38 32° 83° (E) 12:25:55 435.215
DUCHIFAT 1 22 Sep 12:24:09 12:28:17 65° 74° (ENE) 12:32:27 145.980
EO-88 22 Sep 12:29:01 12:31:27 17° 294° (WNW) 12:33:53 145.990 - 145.960
AIST 2D 22 Sep 12:29:35 12:32:39 27° 264° (W) 12:35:45 435.315
POLYITAN 1 22 Sep 12:35:30 12:39:41 73° 258° (WSW) 12:43:57 437.675
EO-79 22 Sep 12:40:18 12:44:27 65° 259° (W) 12:48:40 145.935-145.965
Oscar 19 22 Sep 12:53:00 12:56:59 23° 63° (ENE) 13:01:00 437.125/150
QB50P2 22 Sep 12:53:36 12:57:35 41° 262° (W) 13:01:37 145.880/145.840
ESTCUBE 1 22 Sep 12:53:53 12:58:25 73° 103° (ESE) 13:02:52 437.505/2401.250
BUGSAT 1 22 Sep 13:05:46 13:09:37 49° 72° (ENE) 13:13:34 437.445
M-CUBED/EXP-1 PRIME 22 Sep 13:06:11 13:10:30 63° 254° (WSW) 13:14:31 437.505
NO-84 22 Sep 13:14:28 13:16:54 16° 128° (SE) 13:19:14 435.350 FM
VELOX 1 22 Sep 13:29:43 13:33:41 32° 97° (E) 13:37:37 145.980
LO-87 22 Sep 13:29:50 13:32:41 22° 291° (WNW) 13:35:31 145.935 - 145.965
NANOSAT C BR1 22 Sep 13:31:40 13:34:48 20° 267° (W) 13:37:59 145.865
SPROUT 22 Sep 13:40:08 13:44:23 58° 101° (E) 13:48:36 437.525
50 SAT 22 Sep 13:41:01 13:41:47 11° 91° (E) 13:42:32 437.505
O/OREOS (USA 219) 22 Sep 13:50:20 13:54:37 39° 254° (WSW) 13:58:53 437.305
AO-7 22 Sep 14:00:32 14:06:35 23° 50° (NE) 14:12:38 .
DUCHIFAT 1 22 Sep 14:03:08 14:04:23 11° 271° (W) 14:05:39 145.980
Gurwin Techsat 1B 22 Sep 14:04:02 14:09:17 65° 72° (ENE) 14:14:33 435.225
SO-50 22 Sep 14:06:02 14:08:43 16° 110° (ESE) 14:11:25 436.795
YUBILEINY 22 Sep 14:06:20 14:14:53 59° 283° (WNW) 14:23:29 435.215
RS-15 22 Sep 14:08:28 14:20:17 53° 43° (NE) 14:31:26 29.354- 29.394
Oscar 19 22 Sep 14:30:55 14:35:57 50° 260° (W) 14:41:02 437.125/150
ESTCUBE 1 22 Sep 14:32:34 14:34:36 13° 300° (WNW) 14:36:37 437.505/2401.250
UKube-1 22 Sep 14:39:24 14:43:13 30° 97° (E) 14:47:01 .
DX 1 22 Sep 14:43:02 14:47:16 51° 100° (E) 14:51:30 434.975-435.025
BUGSAT 1 22 Sep 14:43:12 14:45:17 14° 269° (W) 14:47:23 437.445
NO-84 22 Sep 14:50:15 14:54:02 68° 322° (NW) 14:57:30 435.350 FM
